INTELSAT 9 (IS-9)

Last updated on Fri Jul 11 2025 00:02:42 GMT+0000 (Coordinated Universal Time)

1 26451U 00043A 25191.41258903 -.00000259 00000+0 00000+0 0 9990 2 26451 9.6300 52.2971 0002501 121.2700 231.5620 0.99406516 40705
UTC large
Height (km)
Speed (km/s)
/
Latitude / Longitude
Inclination (degrees)
Orbital Period (minutes)
Azimuth
Elevation
Range (km)
Doppler Factor

Next 0 passes for location: London (51.5072 / 0.1276)

Sorry there are no passes over London.
INTELSAT 9 (IS-9)